Find Starlink 31560

NORAD ID: 59361 Int'l Des: 2024-060 Owner: SPXS Country: US Constellation: starlink operational
LEOCIRCULAR

現在のビュー

3D地球を読み込み中...

About Starlink 31560

Starlink 31560 (NORAD 59361) is a starlink constellation satellite (v2 mini) launched Mar 31, 2024 by SPXS of US. It operates in LEO, CIRCULAR orbit with a mass of 730.00 kg.

次回通過

Passes for default location (London). Set your location on the main map for personalized predictions.

高度履歴

Loading altitude history...

軌道要素

1 59361U 24060P 26264.60452179 -.00000757 00000-0 -18009-4 0 9993
2 59361 42.9985 233.5840 0001138 275.7070 84.3652 15.27566456140021
Epoch: Sep 21, 2026 • Age: 6 hours

現在のステータス

高度 491.3 km
遠地点 / 近地点 N/A
速度 7.62 km/s
衛星直下点 -31.82°S, 149.65°E
打ち上げ日 Mar 31, 2024
運用期間 2.4 years
タイプ internet

技術仕様

分類 Payload
質量 730.00 kg
乾燥質量 700.00 kg
長さ 0.30 m
スパン 29.00 m
形状 ? Box + pan
製造者 SPXS
バスタイプ Starlink V2M
フェーズステータス In Orbit
所有者/国 SPXS/US

Most Searched